EW4748 Weather Reports


time (UTC)temp
F
wind
direction
speed
knots
gust
knots
rain 1hr
in
rain 24hr
in
rain mn
in
humidity
%
barometer
mb
20260504213024 60 223 5.2 9.6 0.00 0.00 0.00 63 1010.9
20260504212520 61 188 5.2 9.6 0.00 0.00 0.00 62 1010.7
20260504212017 62 198 7.8 10.4 0.00 0.00 0.00 61 1010.7
20260504211514 62 250 4.3 7.0 0.00 0.00 0.00 62 1010.7
20260504211011 61 194 4.3 9.6 0.00 0.00 0.00 62 1010.8
20260504210508 61 197 4.3 9.6 0.00 0.00 0.00 62 1010.9
20260504210005 62 200 6.1 6.1 0.00 0.00 0.00 61 1010.8
20260504205503 62 273 3.5 8.7 0.00 0.00 0.00 61 1010.9
20260504205000 62 209 3.5 7.8 0.00 0.00 0.00 60 1010.7
20260504204458 62 242 7.8 7.8 0.00 0.00 0.00 61 1010.7
20260504203957 62 209 2.6 11.3 0.00 0.00 0.00 59 1010.8
20260504203455 62 181 3.5 11.3 0.00 0.00 0.00 60 1010.8
20260504202950 62 175 6.1 12.2 0.00 0.00 0.00 59 1010.6
20260504202447 62 182 7.8 13.9 0.00 0.00 0.00 59 1010.7
20260504201944 63 177 5.2 7.8 0.00 0.00 0.00 58 1010.5
20260504201441 62 230 1.7 12.2 0.00 0.00 0.00 58 1010.7
20260504200939 63 194 3.5 11.3 0.00 0.00 0.00 57 1010.6
20260504200435 63 234 7.0 12.2 0.00 0.00 0.00 56 1010.8
20260504195932 64 175 1.7 10.4 0.00 0.00 0.00 55 1010.8
20260504195428 63 199 3.5 13.0 0.00 0.00 0.00 55 1010.9
20260504194924 64 177 7.0 14.8 0.00 0.00 0.00 54 1011.0
20260504194420 65 197 2.6 8.7 0.00 0.00 0.00 53 1011.1
20260504193917 64 198 3.5 7.0 0.00 0.00 0.00 53 1010.9
20260504193414 63 199 6.1 11.3 0.00 0.00 0.00 53 1010.9
20260504192913 64 205 3.5 10.4 0.00 0.00 0.00 53 1010.9
20260504192410 65 206 3.5 7.8 0.00 0.00 0.00 51 1010.9
20260504191909 65 199 3.5 7.8 0.00 0.00 0.00 52 1010.9
20260504191406 66 215 2.6 11.3 0.00 0.00 0.00 51 1011.1
20260504190901 66 255 3.5 7.8 0.00 0.00 0.00 51 1011.1
20260504190357 66 231 3.5 7.8 0.00 0.00 0.00 49 1011.1
20260504185854 66 192 3.5 6.1 0.00 0.00 0.00 52 1011.1
20260504185351 65 274 6.1 8.7 0.00 0.00 0.00 51 1011.3
20260504184847 65 202 1.7 8.7 0.00 0.00 0.00 52 1011.4
20260504184343 65 39 3.5 10.4 0.00 0.00 0.00 51 1011.5
20260504183839 65 239 5.2 9.6 0.00 0.00 0.00 50 1011.3
20260504183337 65 230 4.3 7.8 0.00 0.00 0.00 50 1011.6
20260504182834 66 273 0.9 11.3 0.00 0.00 0.00 50 1011.5
20260504182331 66 202 4.3 7.8 0.00 0.00 0.00 51 1011.3
20260504181828 65 257 3.5 12.2 0.00 0.00 0.00 52 1011.5
20260504181326 64 230 2.6 6.1 0.00 0.00 0.00 54 1011.6
20260504180824 65 179 6.1 7.8 0.00 0.00 0.00 52 1011.5
20260504180322 64 206 4.3 11.3 0.00 0.00 0.00 51 1011.7
20260504175820 65 212 4.3 8.7 0.00 0.00 0.00 54 1011.6
20260504175317 64 180 3.5 9.6 0.00 0.00 0.00 53 1011.8
20260504174815 64 205 4.3 10.4 0.00 0.00 0.00 54 1011.7
20260504174312 64 245 4.3 10.4 0.00 0.00 0.00 53 1011.8
20260504173809 64 261 2.6 9.6 0.00 0.00 0.00 52 1011.8
20260504173306 63 296 3.5 11.3 0.00 0.00 0.00 52 1011.9
20260504172803 64 224 2.6 9.6 0.00 0.00 0.00 52 1011.8
20260504172259 64 205 4.3 9.6 0.00 0.00 0.00 52 1011.9
20260504171755 64 201 3.5 8.7 0.00 0.00 0.00 53 1012.0
20260504171252 65 254 3.5 6.1 0.00 0.00 0.00 50 1012.1
20260504170749 64 193 4.3 9.6 0.00 0.00 0.00 51 1012.1
20260504170246 64 193 4.3 8.7 0.00 0.00 0.00 50 1012.1
20260504160205 65 247 9.6 9.6 0.00 0.00 0.00 40 1012.6
20260504151133 63 297 3.5 10.4 0.00 0.00 0.00 49 1013.1
20260504150630 63 280 4.3 9.6 0.00 0.00 0.00 46 1013.0
20260504150127 64 224 1.7 7.8 0.00 0.00 0.00 46 1013.0
20260504141055 62 280 1.7 7.0 0.00 0.00 0.00 49 1013.3
20260504140552 62 214 4.3 7.8 0.00 0.00 0.00 48 1013.2
20260504130516 59 255 5.2 6.1 0.00 0.00 0.00 52 1013.8
20260504110404 50 258 1.7 4.3 0.00 0.00 0.00 63 1014.1
20260504100321 48 275 2.6 4.3 0.00 0.00 0.00 64 1013.5
20260504081715 49 279 1.7 2.6 0.00 0.00 0.00 61 1013.1
20260504081211 49 298 0.9 4.3 0.00 0.00 0.00 61 1013.0
20260504080707 48 268 1.7 2.6 0.00 0.00 0.00 61 1012.8
20260504080204 49 268 1.7 2.6 0.00 0.00 0.00 61 1012.8
20260504070131 49 257 1.7 4.3 0.00 0.00 0.00 61 1012.5
20260504050520 47 287 0.9 2.6 0.00 0.00 0.00 66 1012.3
20260504050017 47 235 0.0 2.6 0.00 0.00 0.00 65 1012.3
20260504045514 47 195 0.0 2.6 0.00 0.00 0.00 64 1012.3
20260504045009 47 218 0.0 2.6 0.00 0.00 0.00 65 1012.3
20260504044507 47 215 0.9 2.6 0.00 0.00 0.00 65 1012.3
20260504044004 47 285 0.0 2.6 0.00 0.00 0.00 64 1012.5
20260504043500 47 296 0.0 1.7 0.00 0.00 0.00 63 1012.4
20260504042958 47 344 0.0 1.7 0.00 0.00 0.00 62 1012.3
20260504042454 47 290 0.0 2.6 0.00 0.00 0.00 60 1012.5
20260504041952 47 231 0.0 2.6 0.00 0.00 0.00 59 1012.3
20260504041448 47 301 0.0 2.6 0.00 0.00 0.00 59 1012.3
20260504040943 46 252 0.9 2.6 0.00 0.00 0.00 60 1012.3
20260504040441 45 220 0.0 2.6 0.00 0.00 0.00 63 1012.3
20260504035937 45 305 0.0 2.6 0.00 0.00 0.00 63 1012.2
20260504035435 45 301 0.0 2.6 0.00 0.00 0.00 64 1012.2
20260504034931 46 315 1.7 2.6 0.00 0.00 0.00 65 1012.4
20260504034429 46 314 1.7 1.7 0.00 0.00 0.00 64 1012.1
20260504033926 46 298 0.9 1.7 0.00 0.00 0.00 62 1012.2
20260504033424 46 278 0.0 2.6 0.00 0.00 0.00 64 1012.2
20260504032920 46 328 0.9 1.7 0.00 0.00 0.00 59 1012.0
20260504032417 46 297 1.7 2.6 0.00 0.00 0.00 56 1012.2
20260504031914 45 304 0.0 2.6 0.00 0.00 0.00 60 1012.2
20260504031411 45 325 1.7 2.6 0.00 0.00 0.00 65 1012.2
20260504030908 45 302 0.9 2.6 0.00 0.00 0.00 64 1012.2
20260504030405 45 305 0.9 2.6 0.00 0.00 0.00 63 1012.2
20260504025901 45 308 1.7 2.6 0.00 0.00 0.00 62 1012.0
20260504025358 46 293 1.7 2.6 0.00 0.00 0.00 61 1012.1
20260504024855 46 283 0.9 1.7 0.00 0.00 0.00 58 1012.1
20260504024351 46 288 1.7 1.7 0.00 0.00 0.00 56 1012.1
20260504023848 47 311 0.9 2.6 0.00 0.00 0.00 56 1012.1
20260504023345 47 258 0.0 1.7 0.00 0.00 0.00 56 1012.1
20260504022840 47 323 0.0 1.7 0.00 0.00 0.00 56 1011.9
20260504022337 48 340 0.9 2.6 0.00 0.00 0.00 56 1012.1
20260504021834 48 331 1.7 2.6 0.00 0.00 0.00 56 1012.2
20260504021331 48 326 1.7 2.6 0.00 0.00 0.00 55 1012.2
20260504020828 49 307 0.9 2.6 0.00 0.00 0.00 53 1012.1
20260504020325 49 316 0.9 1.7 0.00 0.00 0.00 51 1012.0
20260504015821 49 287 2.6 2.6 0.00 0.00 0.00 47 1012.0
20260504015317 50 279 1.7 2.6 0.00 0.00 0.00 48 1012.1
20260504014814 50 272 0.9 2.6 0.00 0.00 0.00 48 1012.0
20260504014309 50 317 1.7 2.6 0.00 0.00 0.00 46 1012.1
20260504013808 50 275 1.7 1.7 0.00 0.00 0.00 45 1011.8
20260504013305 51 301 1.7 2.6 0.00 0.00 0.00 45 1011.7
20260504012801 51 276 1.7 3.5 0.00 0.00 0.00 44 1011.8
20260504012300 51 274 1.7 2.6 0.00 0.00 0.00 44 1011.7
20260504011756 51 309 1.7 2.6 0.00 0.00 0.00 46 1011.5
20260504011253 51 271 1.7 3.5 0.00 0.00 0.00 44 1011.7
20260504010749 51 288 2.6 2.6 0.00 0.00 0.00 45 1011.6
20260504010244 51 297 1.7 2.6 0.00 0.00 0.00 46 1011.5
20260504005742 50 298 1.7 2.6 0.00 0.00 0.00 49 1011.4
20260504005238 50 315 0.9 1.7 0.00 0.00 0.00 53 1011.4
20260504004736 50 322 0.9 2.6 0.00 0.00 0.00 53 1011.5
20260504004233 51 285 1.7 1.7 0.00 0.00 0.00 51 1011.4
20260504003729 51 282 1.7 2.6 0.00 0.00 0.00 48 1011.0
20260504003227 51 325 1.7 2.6 0.00 0.00 0.00 48 1011.1
20260504002723 51 338 1.7 1.7 0.00 0.00 0.00 48 1010.9
20260504002220 52 327 0.9 1.7 0.00 0.00 0.00 47 1011.0
20260504001718 53 322 0.0 1.7 0.00 0.00 0.00 46 1011.0
20260504001215 53 318 1.7 3.5 0.00 0.00 0.00 40 1010.6
20260504000711 54 307 2.6 2.6 0.00 0.00 0.00 40 1010.6
20260504000208 54 303 3.5 3.5 0.00 0.00 0.00 40 1010.5
20260503235707 54 283 2.6 4.3 0.00 0.00 0.00 39 1010.5
20260503235203 54 268 4.3 5.2 0.00 0.00 0.00 39 1010.5
20260503234701 55 274 2.6 3.5 0.00 0.00 0.00 37 1010.4
20260503234159 55 308 2.6 3.5 0.00 0.00 0.00 37 1010.4
20260503233655 55 294 3.5 5.2 0.00 0.00 0.00 36 1010.4
20260503233151 56 294 3.5 4.3 0.00 0.00 0.00 35 1010.2
20260503232648 56 300 3.5 8.7 0.00 0.00 0.00 34 1010.2
20260503232146 56 289 2.6 5.2 0.00 0.00 0.00 34 1010.2
20260503231644 57 303 3.5 7.8 0.00 0.00 0.00 32 1010.2
20260503231140 57 303 5.2 8.7 0.00 0.00 0.00 33 1010.1
20260503230637 57 300 2.6 6.1 0.00 0.00 0.00 33 1010.2
20260503230134 57 294 5.2 5.2 0.00 0.00 0.00 33 1010.1
20260503225631 57 304 7.0 11.3 0.00 0.00 0.00 32 1010.2
20260503225131 57 295 6.1 10.4 0.00 0.00 0.00 32 1010.0
20260503224629 57 295 3.5 8.7 0.00 0.00 0.00 32 1010.0
20260503224126 57 275 6.1 13.9 0.00 0.00 0.00 32 1009.8
20260503223624 57 316 5.2 8.7 0.00 0.00 0.00 34 1010.0
20260503223120 57 282 4.3 7.8 0.00 0.00 0.00 34 1009.9
20260503222618 57 323 5.2 9.6 0.00 0.00 0.00 33 1009.8
20260503222115 57 308 6.1 12.2 0.00 0.00 0.00 33 1009.8
20260503221614 57 304 7.0 12.2 0.00 0.00 0.00 32 1009.8
20260503221111 58 310 5.2 10.4 0.00 0.00 0.00 33 1010.0
20260503220608 58 304 5.2 7.8 0.00 0.00 0.00 33 1009.9
20260503220104 57 306 2.6 10.4 0.00 0.00 0.00 33 1009.7
20260503215601 57 277 11.3 13.0 0.00 0.00 0.00 32 1009.8
20260503215058 58 286 5.2 11.3 0.00 0.00 0.00 33 1009.7
20260503214556 58 309 6.1 11.3 0.00 0.00 0.00 34 1009.8
20260503214052 57 327 6.1 13.9 0.00 0.00 0.00 35 1009.9
20260503213551 57 323 10.4 13.9 0.00 0.00 0.00 35 1009.7